User: anonymous
Location: Caltech
(34.1382°N, 118.1253°W)
Time: 15:45:17
(UTC-07:00)
Language:

Cosmos 1484 Rocket - Orbit

View from above orbital plane
View from above orbital plane
View from above satellite
View from above satellite

Ground track
Ground track

The orbit data is extracted from the following two-line orbital elements,

1 14208U 83075B   14293.06994729  .00003585  00000-0  23637-3 0  1541
2 14208 097.4120 325.4642 0041030 233.4020 126.3431 15.07418147701015
Epoch (UTC): 20 October 2014 01:40:43
Eccentricity: 0.0041030
inclination: 97.4120°
perigee height: 515 km
apogee height: 572 km
right ascension of ascending node: 325.4642°
argument of perigee: 233.4020°
revolutions per day: 15.07418147
mean anomaly at epoch: 126.3431°
orbit number at epoch: 70101

The dashed part of the orbit path shows where the satellite is in the earth's shadow,  

DLR